Tracking 28790 objects as of 19-Apr-2024
HD Live streaming from Space Station
objects crossing your sky now

FENGYUN 1C DEB

Track FENGYUN 1C DEB now!
10-day predictions


NORAD ID: 32114
Int'l Code: 1999-025CRG
Perigee: 668.2 km
Apogee: 763.3 km
Inclination: 100.0 °
Period: 99.0 minutes
Semi major axis: 7086 km
RCS: 0.0153 m2 (small)
Launch date: May 10, 1999
Source: People's Republic of China (PRC)
Launch site: Taiyaun Space Center, China (TSC)

Note: This is SATELLITE DEBRIS
Your satellite tracking list
Your tracking list is empty




NASA's NSSDC Master Catalog

Two Line Element Set (TLE):
1 32114U 99025CRG 24099.16171277  .00012129  00000-0  27289-2 0  9997
2 32114  99.9521  81.9899 0067084  20.3721 340.0123 14.55230681880286
Source of the keplerian elements: AFSPC